Location: B�retswil
(47.3376°N, 8.8534°E)
Time: 22:59:40
(UTC+00:00)

SAR-Lupe-1 - Visible Passes

Search period start: 24 June 2021 00:00
Search period end: 04 July 2021 00:00
Orbit: 482 x 483 km, 98.2° (Epoch: 30 March)

Date Brightness Start Highest point End Pass type
(mag) Time Alt. Az. Time Alt. Az. Time Alt. Az.
26 Jun 7.2 20:25:32 10° NNW 20:27:42 15° WNW 20:29:51 10° W visible
29 Jun 7.7 20:44:51 10° NW 20:45:35 10° WNW 20:46:19 10° WNW visible
30 Jun 7.1 20:18:13 10° NNW 20:20:46 19° WNW 20:23:19 10° WSW visible
03 Jul 7.4 20:36:59 10° NNW 20:38:38 13° WNW 20:40:18 10° W visible
